This demonstration page uses our WeatherBlox Daily Observations layout. Learn more.

39.92423, -83.80882

Hourly Observations for April 4, 2015

Temp ( °F °C ) Dew Point ( °F °C ) Humidity (%) Winds ( mph kmh ) Pressure ( in mb ) Visibility ( mi km ) Precip ( " mm )
12:56 am 00:56 Clear 40 4.4 34 1.1 79 79 WNW 12 19 30.04 1017 7 11.26538 0 0
1:56 am 01:56 Clear 38 3.3 34 1.1 86 86 WNW 15 24 30.07 1018 7 11.26538 0 0
2:56 am 02:56 Partly Cloudy 36 2.2 30 -1.1 79 79 WNW 18 30 30.11 1020 7 11.26538 0 0
3:04 am 03:04 Mostly Cloudy 36 2 28 -2 75 75 WNW 17 28 30.18 1022 7 11.26538 0 0
3:18 am 03:18 Partly Cloudy 36 2 28 -2 75 75 NW 15 24 30.18 1022 7 11.26538 0 0
3:56 am 03:56 Clear 33 0.5 27 -2.7 79 79 WNW 17 28 30.15 1021 7 11.26538 0 0
4:56 am 04:56 Clear 33 0.5 24 -4.4 70 70 NW 15 24 30.19 1022 7 11.26538 0 0
5:56 am 05:56 Clear 31 -0.5 24 -4.4 75 75 NW 13 20 30.22 1023 8 12.87472 0 0
6:56 am 06:56 Clear 31 -0.5 23 -5 72 72 NW 13 20 30.26 1025 8 12.87472 0 0
7:56 am 07:56 Sunny 30 -1.1 24 -4.4 79 79 NW 8 13 30.28 1026 7 11.26538 0 0
8:56 am 08:56 Sunny 33 0.5 22 -5.5 64 64 NW 12 19 30.31 1026 7 11.26538 0 0
9:56 am 09:56 Hazy 35 1.6 22 -5.5 60 60 NNW 12 19 30.32 1027 6 9.65604 0 0
10:56 am 10:56 Sunny 38 3.3 22 -5.5 53 53 NNW 10 17 30.33 1027 7 11.26538 0 0
11:56 am 11:56 Hazy 40 4.4 24 -4.4 53 53 VRB 7 11 30.33 1027 6 9.65604 0 0
12:56 pm 12:56 Sunny 42 5.5 24 -4.4 49 49 VRB 6 9 30.34 1027 7 11.26538 0 0
1:56 pm 13:56 Hazy 45 7.2 25 -3.8 46 46 SW 9 15 30.33 1027 6 9.65604 0 0
2:56 pm 14:56 Sunny 47 8.3 29 -1.6 50 50 W 15 24 30.31 1027 7 11.26538 0 0
3:56 pm 15:56 Sunny 50 10 31 -0.5 48 48 W 13 20 30.29 1026 7 11.26538 0 0
4:56 pm 16:56 Sunny 51 10.5 30 -1.1 45 45 W 16 26 30.28 1025 7 11.26538 0 0
5:56 pm 17:56 Sunny 52 11.1 31 -0.5 45 45 W 16 26 30.27 1025 7 11.26538 0 0
6:56 pm 18:56 Sunny 50 10 30 -1.1 46 46 WSW 17 28 30.26 1025 7 11.26538 0 0
7:56 pm 19:56 Sunny 47 8.3 31 -0.5 54 54 W 9 15 30.27 1025 7 11.26538 0 0
8:56 pm 20:56 Clear 43 6.1 31 -0.5 63 63 SW 6 9 30.28 1025 8 12.87472 0 0
9:56 pm 21:56 Clear 42 5.5 31 -0.5 66 66 SW 7 11 30.29 1026 8 12.87472 0 0
10:56 pm 22:56 Clear 41 5 30 -1.1 65 65 SSW 8 13 30.28 1026 8 12.87472 0 0
11:56 pm 23:56 Clear 42 5.5 30 -1.1 63 63 SW 9 15 30.28 1025 8 12.87472 0 0

Powered by AerisWeather